Wind_Speed
18 16 15 17 15 12 14 15 16 18 20 21 23 27 29 33 37 41 45 45 39 35 32 33 38 39 41 35 20 19 13 11 10 14 19 22 23 30 39 45 47 40 39 46
19 18 16 17 15 13 14 13 17 19 20 23 24 26 30 30 36 40 44 46 44 39 38 38 37 38 37 37 21 15 17 18 20 22 23 22 21 27 36 39 45 32 34 43
20 19 18 18 16 15 15 11 15 20 20 22 25 27 30 31 34 38 42 44 46 45 40 39 38 35 34 36 24 12 9 11 14 20 27 27 25 25 31 34 31 41 42 30
20 20 18 18 17 17 17 15 13 19 21 22 26 29 28 30 31 37 40 42 45 48 48 45 39 34 29 29 22 14 16 17 8 12 15 21 29 29 35 44 44 37 30 28
19 19 18 18 18 18 18 17 14 16 20 22 24 27 29 31 33 37 41 43 45 49 50 50 43 35 30 25 26 16 14 18 19 5 12 18 32 34 37 40 43 42 37 34
19 19 18 18 18 18 18 19 17 14 16 19 22 24 28 30 31 35 38 42 44 47 52 54 46 40 31 22 22 24 13 13 20 4 9 19 38 27 30 34 37 38 35 36
19 19 18 18 18 17 18 18 18 16 16 16 20 23 25 28 28 32 36 41 44 46 51 56 57 45 34 21 22 27 19 13 26 13 4 23 24 18 22 29 43 37 31 34
19 18 18 18 18 18 18 17 17 16 17 16 19 20 23 26 26 28 34 38 43 46 49 55 59 49 36 21 26 31 25 20 32 22 5 20 20 15 19 21 28 33 37 32
23 20 19 18 18 18 18 19 18 18 17 15 16 18 20 22 24 26 29 34 39 43 46 53 58 44 33 28 31 35 29 25 29 36 12 6 12 18 17 16 18 20 30 31
21 23 22 20 19 19 19 19 19 19 17 14 14 16 18 21 22 24 27 29 33 38 42 47 54 40 33 30 33 35 33 26 23 33 32 15 4 12 11 13 12 12 23 25
24 22 23 23 22 20 19 19 18 18 18 16 12 15 15 18 19 23 24 28 29 33 37 41 47 48 28 31 30 33 35 29 25 20 35 28 23 8 11 11 8 7 7 18
25 23 20 25 26 24 22 18 19 19 18 18 14 13 13 15 17 20 23 26 29 29 32 35 40 45 40 27 28 30 33 34 28 24 17 23 27 20 17 7 5 4 7 7
27 25 20 20 24 28 25 22 21 21 20 18 16 10 11 14 15 17 21 22 24 24 27 31 33 36 41 36 24 26 27 30 32 30 25 20 22 23 18 10 5 2 2 3
28 26 23 22 23 23 24 25 22 21 18 22 14 12 9 12 14 15 18 19 21 23 23 26 27 28 32 36 37 28 21 22 24 24 26 26 24 16 16 13 12 7 6 6
31 28 26 24 26 25 23 24 25 20 22 20 17 16 14 12 14 14 15 17 18 20 22 22 24 25 24 27 31 33 34 29 22 18 18 18 17 17 17 12 8 7 7 5
33 33 30 27 27 26 23 20 24 23 22 21 22 16 21 12 13 15 15 14 16 17 18 20 20 22 23 22 23 24 27 29 30 30 28 22 14 10 9 9 8 8 7 4
34 34 35 32 30 29 22 19 30 26 23 24 20 22 20 16 13 13 15 15 14 13 15 15 16 18 18 19 19 20 21 22 23 24 25 27 29 26 18 9 2 2 4 4
36 34 36 37 35 39 24 21 27 25 26 26 23 24 23 20 17 15 13 14 12 12 13 12 12 14 16 16 17 17 18 18 19 19 20 21 22 23 25 22 15 12 8 4
39 36 37 38 37 40 29 25 27 29 23 29 24 28 23 21 19 18 16 14 13 12 12 11 9 9 12 14 14 14 14 15 17 19 18 16 16 18 20 20 21 17 12 9
39 39 40 41 39 39 33 28 30 28 22 30 28 29 26 24 21 26 18 17 17 15 12 11 10 6 7 10 11 12 12 13 12 13 14 15 15 16 16 16 16 16 17 15
40 38 41 41 43 41 31 29 35 31 24 26 32 34 30 27 27 24 22 20 20 18 16 12 11 10 6 5 7 8 7 9 10 11 12 13 14 14 13 14 13 12 11 11
46 44 43 43 45 44 31 31 35 28 27 24 25 26 27 31 30 27 25 24 23 22 19 16 13 12 10 6 6 6 5 6 9 8 9 11 12 14 15 13 10 11 11 10
51 49 46 45 42 44 44 31 33 33 28 30 30 29 26 25 29 32 28 27 25 24 22 19 16 14 13 11 7 7 7 7 6 8 10 9 10 11 13 14 14 12 12 11
49 51 52 51 44 42 44 38 34 33 32 33 29 27 27 27 27 33 31 30 29 27 26 22 20 18 16 15 12 10 10 8 8 7 7 9 11 13 14 14 15 16 16 16
47 51 53 51 45 41 43 39 37 38 37 31 31 29 29 29 28 30 34 34 32 29 28 26 23 21 20 19 17 15 13 13 13 12 10 10 10 13 14 16 18 18 18 17
48 46 46 45 40 44 44 45 42 41 37 38 37 35 32 32 32 32 33 37 37 35 33 31 29 25 23 23 22 22 20 18 16 18 17 14 14 15 16 17 17 19 21 23
Wind_Direction
273 277 286 292 295 280 279 285 291 298 310 321 326 334 337 347 354 356 360 2 350 334 333 338 341 345 347 345 317 283 265 265 266 231 220 218 217 209 207 213 219 225 230 232
272 272 280 288 291 279 275 289 301 303 307 315 324 326 332 345 351 355 359 3 3 351 337 334 337 341 348 352 342 308 279 270 265 259 233 222 216 208 205 208 210 216 227 227
269 271 275 283 287 278 272 283 299 307 310 312 318 323 329 340 350 354 357 360 3 5 357 345 342 340 349 357 354 352 348 354 281 255 243 228 212 207 198 177 197 198 207 222
269 269 272 281 285 278 270 275 292 305 309 315 319 325 325 334 349 353 355 358 0 4 5 360 352 347 347 359 359 8 10 352 293 230 247 236 215 200 193 180 192 208 208 215
268 269 272 279 284 280 278 272 276 296 305 314 318 321 327 331 343 349 354 358 1 3 4 4 359 354 347 355 7 356 357 10 346 340 232 228 204 202 189 197 189 195 202 209
268 266 270 277 283 283 281 280 280 289 298 310 315 318 325 333 339 345 350 357 2 4 4 6 4 358 351 351 7 7 344 335 350 11 227 213 194 187 195 201 201 209 214 212
269 268 270 275 280 282 284 286 285 287 294 306 312 319 327 329 330 342 348 357 4 6 4 5 7 4 2 0 17 17 19 14 15 45 242 218 187 182 188 190 206 206 205 218
265 265 270 272 279 282 284 287 281 285 292 303 313 321 329 331 327 338 347 355 4 9 6 6 10 9 14 33 26 21 26 35 26 50 236 204 205 190 201 200 200 207 206 222
264 259 268 272 277 286 285 283 284 281 285 295 308 317 325 331 328 334 343 351 360 5 7 7 13 21 41 38 32 31 28 37 35 35 70 221 214 204 214 213 196 211 216 205
271 260 260 268 278 283 288 285 281 282 274 285 305 313 324 328 331 330 340 345 354 1 6 8 13 30 39 35 32 33 29 35 46 36 46 61 239 205 176 170 177 192 201 205
269 270 257 261 266 275 283 285 283 277 273 278 292 308 319 329 335 334 339 341 348 357 3 8 13 24 35 36 33 35 36 38 41 46 40 42 44 105 105 114 129 128 179 206
267 267 268 264 262 264 266 278 280 275 268 272 281 300 319 328 336 338 343 350 347 356 0 7 11 17 28 32 35 33 37 42 47 49 50 58 48 39 44 91 89 118 130 155
260 264 268 268 269 267 264 265 270 274 270 265 267 288 309 319 334 343 347 354 357 357 359 3 10 15 20 29 27 32 32 38 45 50 55 54 57 57 41 23 13 291 312 33
253 260 263 264 264 266 264 267 263 268 269 261 271 259 286 308 320 338 352 354 2 1 358 1 3 12 19 25 30 31 27 30 37 47 50 54 56 55 58 60 42 359 359 317
253 254 259 260 263 266 263 262 259 264 264 266 251 256 260 291 307 327 341 351 354 357 6 359 354 358 14 24 32 36 37 38 36 33 34 40 45 49 58 58 56 65 57 50
255 252 256 255 261 264 262 265 258 261 261 261 259 260 254 265 292 306 321 341 348 354 355 359 356 351 355 11 20 31 36 40 46 46 46 46 40 30 29 37 47 57 72 96
259 258 254 254 257 262 262 261 258 251 255 258 257 251 260 254 261 285 302 316 336 347 345 357 0 355 346 351 3 13 21 29 36 41 44 47 46 44 45 41 348 340 9 11
257 259 258 257 256 259 262 259 265 263 253 257 251 254 255 255 259 263 278 298 316 335 339 344 356 355 351 344 346 355 2 10 17 28 35 37 44 45 46 45 47 53 58 47
249 255 261 262 261 263 261 263 267 266 250 256 254 254 254 256 257 261 268 280 290 308 329 333 338 346 336 344 346 334 343 353 1 5 10 23 26 36 40 45 46 46 42 47
247 252 256 262 266 269 262 259 268 271 265 253 256 255 254 249 250 252 255 263 274 285 298 317 321 317 323 331 341 342 333 334 341 347 351 356 6 15 28 34 38 45 50 52
245 251 255 261 266 268 274 266 261 265 280 262 257 256 259 259 255 259 256 256 264 273 279 291 308 305 298 308 318 324 332 337 330 328 337 337 343 350 353 3 11 20 23 27
241 250 251 255 263 271 277 266 263 263 262 267 265 268 265 258 255 252 252 255 260 264 269 278 287 297 289 295 302 289 286 301 315 318 322 323 329 330 330 333 333 337 340 343
250 250 256 255 256 259 269 268 262 259 260 262 263 264 267 264 261 254 251 253 255 259 264 270 273 277 283 276 277 286 283 274 267 290 297 300 303 303 311 315 317 313 303 299
252 252 253 259 257 255 260 265 264 264 257 255 259 262 266 267 266 256 252 254 255 255 260 263 265 266 266 270 268 264 275 268 265 271 280 293 286 285 287 289 294 297 301 307
252 246 252 258 261 254 254 258 254 256 258 257 258 255 254 257 258 261 255 252 256 258 261 262 259 257 259 262 264 268 267 268 273 272 271 281 290 294 284 277 276 279 282 286
252 254 255 259 257 250 247 250 253 254 258 261 259 256 253 254 257 259 258 258 254 257 256 260 259 254 256 259 256 257 261 266 269 275 276 277 274 281 288 286 276 271 272 277
Height
5805 5806 5805 5805 5803 5802 5801 5799 5797 5795 5793 5790 5785 5778 5773 5766 5758 5749 5740 5728 5718 5711 5703 5695 5687 5678 5669 5659 5653 5651 5652 5652 5651 5653 5657 5661 5666 5670 5678 5686 5696 5706 5714 5724
5802 5801 5801 5801 5800 5799 5798 5796 5794 5793 5791 5788 5784 5778 5772 5766 5757 5749 5739 5728 5718 5709 5700 5693 5686 5676 5667 5657 5650 5648 5649 5650 5650 5652 5655 5657 5663 5667 5673 5681 5692 5704 5710 5717
5798 5798 5797 5797 5797 5796 5795 5794 5791 5790 5788 5785 5781 5777 5771 5764 5757 5750 5740 5730 5720 5710 5700 5690 5682 5673 5666 5658 5651 5648 5647 5647 5647 5648 5650 5654 5659 5664 5669 5679 5688 5696 5703 5709
5794 5794 5794 5793 5793 5793 5792 5791 5788 5787 5785 5783 5779 5775 5770 5763 5757 5751 5741 5732 5721 5711 5701 5691 5681 5672 5665 5659 5652 5648 5646 5645 5644 5645 5647 5650 5654 5660 5665 5674 5683 5691 5700 5706
5790 5790 5790 5790 5789 5789 5790 5788 5786 5784 5782 5780 5777 5774 5768 5762 5755 5748 5741 5732 5722 5712 5702 5691 5681 5672 5663 5658 5653 5648 5647 5644 5640 5640 5641 5644 5650 5656 5662 5668 5676 5685 5694 5703
5785 5786 5786 5786 5786 5786 5785 5785 5784 5782 5780 5778 5775 5773 5769 5763 5757 5750 5743 5735 5725 5714 5703 5693 5682 5672 5662 5658 5654 5649 5646 5644 5639 5636 5637 5643 5648 5656 5663 5667 5674 5681 5690 5698
5781 5782 5782 5783 5783 5782 5782 5781 5781 5780 5778 5776 5773 5771 5768 5764 5758 5751 5744 5737 5727 5717 5706 5696 5684 5672 5662 5657 5657 5651 5647 5644 5640 5636 5641 5644 5649 5656 5663 5668 5673 5679 5686 5695
5777 5779 5779 5779 5779 5779 5778 5778 5777 5776 5775 5774 5771 5769 5767 5763 5758 5752 5746 5739 5730 5721 5711 5699 5688 5674 5664 5662 5661 5655 5650 5646 5644 5642 5646 5651 5655 5659 5663 5667 5672 5675 5683 5690
5772 5774 5775 5775 5775 5776 5775 5775 5774 5773 5772 5771 5770 5768 5766 5762 5758 5753 5748 5742 5734 5725 5715 5705 5694 5682 5674 5671 5667 5661 5654 5651 5650 5649 5650 5653 5657 5660 5664 5667 5670 5673 5680 5686
5767 5768 5770 5771 5771 5771 5771 5771 5771 5769 5769 5769 5767 5765 5763 5761 5758 5753 5749 5743 5737 5729 5720 5711 5701 5691 5684 5678 5673 5668 5662 5657 5654 5655 5654 5657 5658 5661 5664 5667 5670 5673 5678 5685
5761 5762 5766 5766 5766 5767 5767 5766 5766 5766 5765 5764 5764 5763 5760 5759 5757 5754 5749 5745 5739 5733 5725 5717 5708 5700 5692 5686 5681 5676 5671 5665 5661 5659 5659 5659 5661 5664 5666 5669 5672 5675 5679 5685
5756 5755 5757 5759 5760 5761 5762 5762 5761 5761 5763 5761 5760 5760 5758 5756 5756 5753 5750 5746 5741 5736 5730 5722 5714 5707 5699 5693 5688 5683 5679 5675 5670 5668 5668 5667 5666 5667 5668 5671 5675 5679 5682 5685
5749 5750 5752 5753 5755 5755 5756 5756 5757 5757 5757 5758 5757 5758 5755 5754 5754 5752 5750 5746 5742 5738 5733 5727 5721 5713 5706 5699 5694 5691 5685 5681 5678 5675 5674 5673 5674 5675 5675 5678 5682 5683 5685 5686
5742 5744 5745 5747 5747 5749 5750 5750 5751 5752 5752 5752 5755 5753 5752 5752 5751 5750 5749 5746 5743 5740 5736 5732 5726 5719 5713 5706 5700 5694 5692 5689 5686 5684 5682 5680 5680 5680 5680 5681 5682 5685 5688 5690
5734 5737 5739 5740 5741 5742 5743 5745 5744 5747 5747 5748 5750 5749 5748 5748 5748 5748 5747 5745 5743 5741 5738 5734 5731 5725 5719 5714 5708 5702 5698 5694 5692 5690 5689 5688 5687 5685 5684 5685 5686 5687 5689 5690
5726 5730 5732 5734 5734 5735 5737 5739 5739 5741 5741 5742 5742 5746 5742 5744 5744 5744 5743 5742 5742 5740 5738 5735 5733 5729 5725 5720 5715 5710 5705 5701 5697 5694 5692 5689 5687 5687 5688 5688 5689 5689 5689 5689
5718 5721 5724 5726 5727 5726 5732 5734 5731 5734 5735 5736 5738 5737 5738 5738 5739 5740 5740 5739 5739 5738 5737 5735 5733 5730 5727 5724 5719 5716 5712 5709 5705 5701 5698 5695 5692 5690 5690 5690 5690 5690 5690 5691
5710 5712 5714 5717 5720 5716 5727 5727 5726 5727 5730 5729 5732 5731 5733 5733 5734 5735 5735 5736 5735 5734 5734 5732 5731 5730 5728 5725 5723 5720 5717 5714 5710 5707 5705 5703 5700 5698 5695 5692 5691 5691 5692 5693
5703 5704 5706 5706 5711 5711 5720 5722 5721 5719 5726 5723 5727 5725 5727 5728 5729 5730 5730 5731 5731 5730 5730 5729 5728 5728 5728 5726 5724 5722 5719 5717 5714 5713 5710 5707 5705 5703 5700 5698 5696 5694 5694 5694
5695 5696 5699 5698 5700 5701 5709 5716 5714 5715 5719 5717 5719 5720 5721 5722 5723 5721 5725 5725 5726 5726 5725 5724 5725 5725 5724 5724 5723 5722 5720 5717 5715 5714 5713 5711 5708 5706 5704 5703 5701 5699 5698 5698
5685 5687 5689 5690 5690 5691 5703 5708 5706 5708 5714 5709 5710 5713 5715 5717 5717 5718 5719 5719 5719 5720 5720 5720 5720 5720 5721 5721 5720 5720 5719 5718 5715 5712 5712 5711 5710 5708 5707 5705 5703 5702 5701 5699
5676 5678 5681 5683 5683 5684 5695 5696 5696 5700 5700 5703 5704 5704 5706 5708 5711 5711 5712 5713 5713 5714 5714 5714 5714 5715 5715 5716 5716 5715 5716 5715 5714 5712 5710 5708 5708 5707 5707 5706 5706 5704 5702 5701
5662 5670 5673 5674 5677 5679 5679 5687 5688 5689 5692 5694 5696 5697 5698 5700 5702 5704 5705 5706 5706 5707 5708 5708 5709 5709 5709 5710 5710 5711 5711 5711 5710 5710 5708 5707 5706 5705 5705 5703 5703 5703 5702 5700
5652 5656 5660 5662 5669 5672 5672 5675 5679 5680 5682 5684 5687 5690 5691 5692 5694 5695 5698 5699 5700 5700 5700 5701 5702 5703 5703 5703 5704 5704 5705 5705 5705 5705 5704 5704 5702 5701 5701 5701 5700 5698 5696 5696
5640 5644 5650 5652 5656 5662 5664 5664 5667 5668 5669 5676 5678 5679 5681 5683 5685 5687 5688 5691 5692 5694 5694 5693 5694 5694 5696 5696 5697 5697 5697 5698 5698 5698 5698 5698 5697 5697 5696 5694 5694 5693 5692 5690
5630 5636 5641 5645 5646 5645 5650 5652 5655 5658 5663 5664 5665 5668 5671 5674 5675 5678 5679 5680 5683 5685 5686 5686 5686 5685 5687 5688 5689 5689 5689 5690 5690 5690 5690 5690 5690 5689 5688 5688 5687 5686 5686 5685